OneWeb SL0623

operational
NORAD ID: 55164 Int'l Des: 2023-004 Owner: ONEWEBN Country: UK Constellation: oneweb
LEOCIRCULARPOLARONEWEB_TYPE

关于 OneWeb SL0623

正在加载描述...

实时位置

正在加载3D地球...

即将过境

高度历史

Altitude vs Time

uPlot chart will show altitude changes over time

两行轨道根数

1 55164U 23004AA 25260.93886420 .00000012 00000-0 -11793-5 0 9995
2 55164 87.9045 60.0407 0002462 88.0154 272.1259 13.17649563131731
Epoch: Sep 17, 2025 • Age: 10 hours

当前状态

高度 1201.9 km
速度 7.26 km/s
星下点 57.53°N, 115.21°E
发射日期 Jan 10, 2023
运行时间 2.6 years
类型 internet

技术详情

分类 Payload
质量 148.00 kg
干质量 140.00 kg
总质量 148.00 kg
长度 1.30 m
直径 1.00 m
跨度 5.00 m
形状 Trapezoid+2 pan
制造商 ONEWUS
平台类型 ARROW
阶段状态 In Orbit
所有者/国家 ONEWEBN/UK

大型星座

Loading constellations...